Location: Melbourne
(37.8170°S, 144.9670°E)
Time: 05:58:08
(UTC+10:00)

ISS - All Passes

Search period start: 26 July 2014 00:00
Search period end: 05 August 2014 00:00
Orbit: 411 x 420 km, 51.6° (Epoch: 25 July)

Date Brightness Start Highest point End Pass type
(mag) Time Alt. Az. Time Alt. Az. Time Alt. Az.
26 Jul - 11:25:24 10° N 11:28:06 23° NE 11:30:49 10° ESE daylight
26 Jul - 13:01:33 10° WNW 13:04:41 35° SSW 13:07:50 10° SE daylight
26 Jul - 14:41:32 10° SSW 14:42:12 10° SSW 14:42:53 10° S daylight
26 Jul - 17:55:28 10° SSW 17:58:05 20° SSE 18:00:40 10° ESE visible
26 Jul - 19:31:42 10° WSW 19:35:00 53° NW 19:38:16 10° NE visible
27 Jul - 10:38:00 10° NNE 10:39:31 13° NE 10:41:02 10° E daylight
27 Jul - 12:12:31 10° WNW 12:15:51 61° SW 12:19:13 10° SE daylight
27 Jul - 13:51:26 10° SW 13:53:09 13° SSW 13:54:51 10° S daylight
27 Jul - 17:07:04 10° SSW 17:09:06 15° SSE 17:11:07 10° ESE daylight
27 Jul - 18:42:54 10° SW 18:46:17 80° SE 18:49:38 10° NE visible
28 Jul - 11:23:45 10° NW 11:27:06 73° NE 11:30:29 10° SE daylight
28 Jul - 13:01:47 10° WSW 13:04:09 18° SSW 13:06:32 10° SSE daylight
28 Jul - 16:18:51 10° S 16:20:04 12° SSE 16:21:17 10° SE daylight
28 Jul - 17:54:14 10° SW 17:57:30 44° SE 18:00:44 10° ENE visible
28 Jul - 19:31:40 10° W 19:33:58 17° NW 19:36:15 10° N visible
29 Jul - 10:35:17 10° NNW 10:38:25 37° NE 10:41:35 10° ESE daylight
29 Jul - 12:12:22 10° W 12:15:13 25° SSW 12:18:05 10° SSE daylight
29 Jul - 17:05:41 10° SSW 17:08:39 27° SSE 17:11:36 10° E daylight
29 Jul - 18:42:21 10° WSW 18:45:23 31° NW 18:48:23 10° NNE visible
30 Jul - 09:47:16 10° N 09:49:50 20° NE 09:52:24 10° E daylight
30 Jul - 11:23:11 10° WNW 11:26:22 38° SW 11:29:34 10° SE daylight
30 Jul - 13:02:54 10° SSW 13:03:51 11° SSW 13:04:48 10° S daylight
30 Jul - 16:17:14 10° SSW 16:19:45 19° SSE 16:22:15 10° ESE daylight
30 Jul - 17:53:24 10° WSW 17:56:44 61° NW 18:00:02 10° NE visible
31 Jul - 09:00:14 10° NE 09:01:18 11° NE 09:02:22 10° ENE daylight
31 Jul - 10:34:14 10° WNW 10:37:35 68° SW 10:40:58 10° SE daylight
31 Jul - 12:12:59 10° SW 12:14:50 14° SSW 12:16:42 10° SSE daylight
31 Jul - 15:28:54 10° SSW 15:30:48 14° SSE 15:32:42 10° SE daylight
31 Jul - 17:04:40 10° SW 17:08:02 71° SE 17:11:22 10° NE daylight
31 Jul - 18:43:39 10° WNW 18:44:18 10° NW 18:44:58 10° NW visible
01 Aug - 09:45:33 10° NW 09:48:53 64° NE 09:52:15 10° SE daylight
01 Aug - 11:23:25 10° WSW 11:25:54 19° SSW 11:28:23 10° SSE daylight
01 Aug - 14:40:46 10° S 14:41:48 11° SSE 14:42:50 10° SSE daylight
01 Aug - 16:16:04 10° SW 16:19:17 40° SE 16:22:28 10° ENE daylight
01 Aug - 17:53:19 10° W 17:55:48 19° NW 17:58:15 10° N visible
02 Aug - 08:57:12 10° NNW 09:00:16 33° NE 09:03:22 10° ESE daylight
02 Aug - 10:34:05 10° W 10:37:01 27° SSW 10:39:58 10° SSE daylight
02 Aug - 15:27:34 10° SSW 15:30:28 26° SSE 15:33:20 10° E daylight
02 Aug - 17:04:07 10° WSW 17:07:14 35° NW 17:10:19 10° NNE daylight
03 Aug - 08:09:18 10° N 08:11:43 18° NE 08:14:08 10° E daylight
03 Aug - 09:44:58 10° WNW 09:48:13 42° SW 09:51:28 10° SE daylight
03 Aug - 11:24:29 10° SW 11:25:40 11° SSW 11:26:50 10° S daylight
03 Aug - 14:39:10 10° SSW 14:41:35 18° SSE 14:44:00 10° ESE daylight
03 Aug - 16:15:16 10° SW 16:18:37 69° NW 16:21:56 10° NE daylight
04 Aug - 08:56:06 10° NW 08:59:29 76° SW 09:02:53 10° SE daylight
04 Aug - 10:34:42 10° WSW 10:36:42 15° SSW 10:38:42 10° SSE daylight
04 Aug - 13:50:53 10° SSW 13:52:40 14° SSE 13:54:26 10° SE daylight
04 Aug - 15:26:35 10° SW 15:29:57 64° SE 15:33:16 10° ENE daylight
04 Aug - 17:04:59 10° WNW 17:06:16 12° NW 17:07:32 10° NNW daylight
